Powrót do katalogu

FENGYUN 1C DEB

AktywnySSO
NORAD 35152·DEBRIS·🇨🇳 China

Wystrzelony May 10, 1999 z Taiyuan Satellite Launch Center

Loading…

Następne Przeloty (najbliższe 24 godziny)

TLE

Starzejące sięSource: Space-Track

Epoka: Sep 9, 2026, 18:40 UTC

1 35152U 99025DMG 26252.77807625  .00000448  00000-0  43764-3 0  9993
2 35152  99.8201  89.2572 0194268  33.9096 327.4298 13.76833505659220

Śledź FENGYUN 1C DEB w czasie rzeczywistym z AllMySat

Download on the App Store